This is the latest recevied weather packets stored in our database for station/object PU2ONU-13. If no packets are shown the sender has not sent any weather packets the latest 10 day(s).
| Time | Temp. | Humidity | Pressure | Rain* | Wind** | Luminosity | Snow |
|---|---|---|---|---|---|---|---|
| 1788324013 | 26.11° C | 46% | 1016 hPa | - | - | - | - |
| 1788297614 | 28.33° C | 50% | 1012 hPa | - | - | - | - |
| 1788294013 | 28.33° C | 49% | 1012 hPa | - | - | - | - |
| 1788288014 | 28.33° C | 50% | 1012 hPa | - | - | - | - |
| 1788286812 | 27.78° C | 51% | 1012 hPa | - | - | - | - |
| 1788283214 | 28.33° C | 49% | 1012 hPa | - | - | - | - |
| 1788280814 | 27.22° C | 54% | 1012 hPa | - | - | - | - |
| 1788279613 | 27.78° C | 51% | 1012 hPa | - | - | - | - |
| 1788276017 | 28.89° C | 48% | 1012 hPa | - | - | - | - |
| 1788273613 | 28.33° C | 51% | 1013 hPa | - | - | - | - |
| 1788272414 | 29.44° C | 49% | 1013 hPa | - | - | - | - |
| 1788270016 | 28.89° C | 48% | 1014 hPa | - | - | - | - |
| 1788268813 | 28.89° C | 50% | 1014 hPa | - | - | - | - |
| 1788266414 | 28.33° C | 50% | 1014 hPa | - | - | - | - |
| 1788265214 | 28.33° C | 49% | 1014 hPa | - | - | - | - |
| 1788262814 | 27.78° C | 51% | 1014 hPa | - | - | - | - |
| 1788261614 | 28.89° C | 48% | 1013 hPa | - | - | - | - |
| 1788259214 | 28.33° C | 49% | 1013 hPa | - | - | - | - |
| 1788258014 | 28.89° C | 49% | 1012 hPa | - | - | - | - |
| 1788255612 | 28.33° C | 50% | 1012 hPa | - | - | - | - |
| 1788254415 | 28.33° C | 49% | 1011 hPa | - | - | - | - |
| 1788252013 | 28.33° C | 50% | 1011 hPa | - | - | - | - |
| 1788250813 | 28.89° C | 47% | 1012 hPa | - | - | - | - |
| 1788248413 | 28.89° C | 48% | 1010 hPa | - | - | - | - |
| 1788247214 | 28.33° C | 49% | 1010 hPa | - | - | - | - |
* Rain since midnight (hover to see other rain measurements)
** Current wind speed in m/s (hover to see current wind gust speed)